Home   Weather   Delbrück   Past weeks

Flag for Germany Past Weather in Delbrück, North Rhine-Westphalia, Germany — Yesterday and Last 2 Weeks

Now
55 °F

Passing clouds.


Feels Like: 54 °F
Forecast: 50 / 67 °F
Wind: 6 mph from Southeast

Location: Paderborn / Lippstadt

Current Time: Sep 25, 2016 at 2:28:43 AM

Latest Report: Sep 25, 2016 at 1:50 AM


Visibility: N/A

Pressure: 30.15 "Hg

Humidity: 67%

Dew Point: 45 °F

Location of DelbrückLocation

Past Weather in Delbrück — Graph

°F

Delbrück Temperature Yesterday

Maximum temperature yesterday: 73 °F (at 3:20 PM)
Minimum temperature yesterday: 48 °F (at 4:50 AM)
Average temperature yesterday: 61 °F

High & Low Weather Summary for the Past Weeks

 TemperatureHumidityPressure
High90 °F (Sep 13, 1:50 PM)94% (Sep 10, 2:50 AM)30.30 "Hg (Sep 10, 2:50 AM)
Low43 °F (Sep 21, 5:50 AM)25% (Sep 13, 5:20 PM)29.83 "Hg (Sep 15, 4:20 PM)
Average65 °F62%30.06 "Hg
* Reported Sep 10 12:20 AM — Sep 25 12:50 AM, Delbrück, Weather by CustomWeather, © 2016

Note: Actual official high and low records may vary slightly from our data, if they occured in-between our weather recording intervals... More about our weather records

Advertising

Delbrück Weather History for the Previous 24 Hours

Scroll right to see more
 ConditionsComfort  
Time TempWeatherWind HumidityBarometerVisibility
12:50 AM
Sun, Sep 25
59 °FClear.6 mph59%30.15 "Hg10 mi
12:20 AM59 °FClear.7 mph59%30.18 "Hg10 mi
11:50 PM
Sat, Sep 24
59 °FClear.7 mph59%30.18 "Hg10 mi
11:20 PM59 °FClear.7 mph59%30.18 "Hg10 mi
10:50 PM59 °FClear.6 mph63%30.18 "Hg10 mi
10:20 PM61 °FClear.6 mph59%30.18 "Hg10 mi
9:50 PM61 °FClear.7 mph59%30.18 "Hg10 mi
9:20 PM63 °FClear.5 mph56%30.18 "Hg10 mi
8:50 PM63 °FClear.5 mph56%30.18 "Hg10 mi
8:20 PM64 °FClear.6 mph52%30.18 "Hg10 mi
7:50 PM64 °FClear.6 mph56%30.18 "Hg10 mi
7:20 PM66 °FClear.3 mph52%30.18 "Hg10 mi
6:50 PM68 °FSunny.5 mph49%30.18 "Hg10 mi
6:20 PM70 °FSunny.6 mph43%30.18 "Hg10 mi
5:50 PM72 °FSunny.2 mph41%30.18 "Hg10 mi
5:20 PM72 °FSunny.2 mph38%30.21 "Hg10 mi
4:50 PM72 °FSunny.3 mph38%30.21 "Hg10 mi
4:20 PM73 °FSunny.3 mph36%30.21 "Hg10 mi
3:50 PM72 °FSunny.3 mph38%30.24 "Hg10 mi
3:20 PM73 °FSunny.5 mph36%30.24 "Hg10 mi
2:50 PM72 °FSunny.5 mph38%30.24 "Hg10 mi
2:20 PM72 °FPassing clouds.6 mph38%30.27 "HgN/A
1:50 PM70 °FSunny.7 mph40%30.27 "Hg10 mi
1:20 PM72 °FSunny.8 mph38%30.27 "Hg10 mi
12:50 PM70 °FSunny.8 mph40%30.27 "Hg10 mi
12:20 PM70 °FPassing clouds.9 mph40%30.27 "HgN/A
11:50 AM70 °FPassing clouds.8 mph43%30.27 "HgN/A
11:20 AM68 °FSunny.10 mph53%30.27 "Hg10 mi
10:50 AM66 °FSunny.9 mph56%30.27 "Hg10 mi
10:20 AM64 °FSunny.8 mph64%30.27 "Hg10 mi
9:50 AM61 °FPassing clouds.6 mph68%30.27 "HgN/A
9:20 AM59 °FPassing clouds.7 mph72%30.30 "HgN/A
8:50 AM57 °FPassing clouds.7 mph72%30.27 "HgN/A
8:20 AM52 °FPassing clouds.8 mph82%30.27 "HgN/A
7:50 AM50 °FPassing clouds.8 mph82%30.30 "HgN/A
7:20 AM48 °FSunny.8 mph87%30.27 "Hg10 mi
6:50 AM48 °FClear.6 mph87%30.27 "Hg10 mi
6:20 AM48 °FClear.8 mph87%30.30 "Hg10 mi
5:50 AM48 °FClear.10 mph87%30.27 "Hg10 mi
5:20 AM48 °FClear.10 mph87%30.30 "Hg10 mi
4:50 AM48 °FPassing clouds.5 mph87%30.30 "HgN/A
3:50 AM50 °FPassing clouds.5 mph88%30.30 "HgN/A
3:20 AM50 °FPassing clouds.1 mph88%30.30 "HgN/A
2:50 AM50 °FClear.3 mph88%30.30 "Hg10 mi
2:20 AM50 °FPassing clouds.8 mph88%30.30 "HgN/A
Weather by CustomWeather, © 2016

See weather overviewHow to use our weather pages